Location: Beuerbach
(48.1459°N, 10.9174°E)
Time: 03:31:08
(UTC+00:00)

USA 267 - Pass Details

Date: 23 May 2024
Orbit: 1100 x 1107 km, 123.0° (Epoch: 21 May)

Event Time Altitude Azimuth Distance (km) Brightness Sun altitude
Rises 01:57:52 0° 67° (ENE) 3,921 7.4 -12.0°
Reaches altitude 10° 02:00:28 10° 61° (ENE) 2,962 6.7 -11.7°
Maximum altitude 02:06:31 43° 353° (N) 1,515 4.4 -11.0°
Drops below altitude 10° 02:12:35 10° 285° (WNW) 2,960 5.3 -10.4°
Sets 02:15:11 0° 279° (W) 3,918 5.8 -10.1°
